Waarnemingen

Advertentie
Mijn weer
Charlwood, Groot Brittannië (3769): temperatuur & dauwpunt: 16.09.2018 22:00:00 - 22.09.2018 22:00:00 (BST)Charlwood, Groot Brittannië (3769): temperatuur -20cm & temperatuur -100cm: 16.09.2018 22:00:00 - 22.09.2018 22:00:00 (BST)Charlwood, Groot Brittannië (3769): windsnelheid & windstoten: 16.09.2018 22:00:00 - 22.09.2018 22:00:00 (BST)Charlwood, Groot Brittannië (3769): windrichting: 16.09.2018 22:00:00 - 22.09.2018 22:00:00 (BST)Charlwood, Groot Brittannië (3769): luchtdruk: 16.09.2018 22:00:00 - 22.09.2018 22:00:00 (BST)Charlwood, Groot Brittannië (3769): zicht: 16.09.2018 22:00:00 - 22.09.2018 22:00:00 (BST)Charlwood, Groot Brittannië (3769): Zonneschijnduur: 16.09.2018 22:00:00 - 22.09.2018 22:00:00 (BST)Charlwood, Groot Brittannië (3769): neerslag: 16.09.2018 22:00:00 - 22.09.2018 22:00:00 (BST)
Datum & Tijd tt [°C] td [°C] tt -20cm [°C] tt -100cm [°C] ff [km/u] ff [kn] fx [km/u] fx [kn] dd ppp [hPa] vv [km] sd [min] rr [mm]
22.09.2018 22:00:00 - - - - - - - - - - - - -
22.09.2018 21:00:00 10,6 10,2 - - 9 5 - - ONO 1013,7 5 0 0,4
22.09.2018 20:00:00 10,5 10,1 - - 16 9 - - O 1014,3 6 0 0,8
22.09.2018 19:00:00 10,5 10,0 - - 15 8 - - O 1014,3 6 0 1,4
22.09.2018 18:00:00 10,4 9,9 - - 15 8 - - O 1015,2 8 0 1,6
22.09.2018 17:00:00 10,6 9,8 - - 11 6 - - O 1016,1 5 0 0,8
22.09.2018 16:00:00 10,9 9,9 - - 5 3 - - OZO 1017,4 6 0 0,8
22.09.2018 15:00:00 11,1 9,7 - - 4 2 - - ZO 1018,2 12 0 2,0
22.09.2018 14:00:00 11,4 9,2 - - 8 4 - - ZZW 1019,0 27 0 0,8
22.09.2018 13:00:00 12,4 10,0 - - 5 3 - - ZW 1019,7 19 0 0,4
22.09.2018 12:00:00 13,4 8,1 - - 11 6 - - WZW 1020,1 21 0 0,0
22.09.2018 11:00:00 13,4 9,2 - - 8 4 - - ZW 1019,9 24 0 0,0
22.09.2018 10:00:00 13,0 9,1 15,2 16,0 9 5 - - WZW 1019,7 21 0 0,0
22.09.2018 09:00:00 11,5 8,8 - - 9 5 - - WZW 1019,9 16 0 0,0
22.09.2018 08:00:00 10,7 8,6 - - 8 4 - - WZW 1019,7 16 0 0,0
22.09.2018 07:00:00 10,6 8,4 - - 9 5 - - W 1019,6 17 0 0,0
22.09.2018 06:00:00 10,1 8,1 - - 8 4 - - WZW 1019,5 17 0 0,0
22.09.2018 05:00:00 10,2 7,9 - - 9 5 - - WZW 1019,5 21 0 0,0
22.09.2018 04:00:00 10,2 7,7 - - 11 6 - - WZW 1019,5 20 0 0,0
22.09.2018 03:00:00 10,2 7,5 - - 11 6 - - WZW 1019,4 22 0 0,0
22.09.2018 02:00:00 10,1 7,2 - - 9 5 - - ZW 1019,4 28 0 0,0
22.09.2018 01:00:00 10,1 6,9 - - 11 6 - - WZW 1019,2 26 - 0,0
22.09.2018 00:00:00 10,5 6,9 - - 13 7 - - WZW 1019,2 25 0 0,0
21.09.2018 23:00:00 10,7 6,9 - - 13 7 - - WZW 1018,5 30 0 0,0
21.09.2018 22:00:00 11,2 6,9 - - 13 7 - - WZW 1017,9 22 0 0,0
21.09.2018 21:00:00 11,3 6,2 - - 11 6 - - WZW 1017,2 28 0 0,0
21.09.2018 20:00:00 12,5 5,6 - - 11 6 - - WZW 1016,3 40 0 0,0
21.09.2018 19:00:00 13,9 5,5 - - 15 8 - - W 1014,9 40 30 0,0
21.09.2018 18:00:00 14,8 7,2 - - 16 9 50 27 W 1013,4 24 42 0,0
21.09.2018 17:00:00 15,2 6,2 - - 26 14 54 29 W 1012,9 35 30 0,0
21.09.2018 16:00:00 15,4 7,2 - - 22 12 59 32 WZW 1012,2 35 24 0,0
21.09.2018 15:00:00 15,1 5,0 - - 34 18 59 32 WZW 1011,6 50 24 0,0
21.09.2018 14:00:00 15,7 5,0 - - 26 14 48 26 WZW 1010,8 35 36 0,0
21.09.2018 13:00:00 15,6 6,2 - - 21 11 - - W 1010,3 27 36 0,0
21.09.2018 12:00:00 14,5 7,1 - - 21 11 - - WZW 1009,8 40 30 0,0
21.09.2018 11:00:00 13,2 7,5 - - 18 10 - - WZW 1009,7 30 42 0,0
21.09.2018 10:00:00 11,9 6,3 16,7 16,0 22 12 - - WZW 1009,2 50 54 0,0
21.09.2018 09:00:00 10,9 6,2 - - 18 10 - - WZW 1008,0 50 54 0,0
21.09.2018 08:00:00 10,2 7,1 - - 16 9 - - W 1006,6 50 24 0,0
21.09.2018 07:00:00 10,6 6,5 - - 18 10 - - W 1004,8 50 0 0,0
21.09.2018 06:00:00 11,8 8,4 - - 15 8 - - W 1003,3 45 0 0,0
21.09.2018 05:00:00 12,0 9,4 - - 18 10 - - WZW 1002,0 45 0 0,0
21.09.2018 04:00:00 12,6 10,1 - - 21 11 48 26 WZW 1000,6 40 0 0,2
21.09.2018 03:00:00 14,8 13,9 - - 21 11 63 34 WZW 999,2 20 0 6,4
21.09.2018 02:00:00 17,2 16,0 - - 31 17 61 33 ZZW 998,5 4,2 0 1,0
21.09.2018 01:00:00 17,2 15,9 - - 28 15 59 32 ZZW 1000,0 13 - 0,8
21.09.2018 00:00:00 17,4 15,7 - - 26 14 57 31 ZZW 1001,0 6 0 0,4
20.09.2018 23:00:00 19,1 14,5 - - 31 17 57 31 ZZW 1002,4 18 0 0,0
20.09.2018 22:00:00 19,3 14,0 - - 26 14 54 29 ZZW 1003,9 22 0 0,0
20.09.2018 21:00:00 19,1 14,5 - - 26 14 46 25 ZW 1005,2 19 0 0,0
20.09.2018 20:00:00 18,8 14,6 - - 22 12 - - ZZW 1006,1 19 0 0,0
20.09.2018 19:00:00 19,0 14,7 - - 21 11 46 25 ZZW 1007,1 18 0 0,0
20.09.2018 18:00:00 19,2 15,1 - - 22 12 46 25 ZW 1008,1 17 0 0,0
20.09.2018 17:00:00 19,5 15,0 - - 29 16 52 28 ZW 1008,9 16 0 0,0
20.09.2018 16:00:00 19,3 14,7 - - 24 13 52 28 ZW 1009,9 17 0 0,0
20.09.2018 15:00:00 19,7 14,5 - - 28 15 57 31 ZW 1010,6 14 0 0,0
20.09.2018 14:00:00 19,1 14,4 - - 29 16 52 28 ZZW 1011,1 15 0 0,0
20.09.2018 13:00:00 18,9 14,5 - - 21 11 - - ZW 1011,7 16 0 0,0
20.09.2018 12:00:00 18,2 14,6 - - 24 13 - - ZW 1012,5 15 0 0,0
20.09.2018 11:00:00 17,6 15,5 - - 18 10 - - ZW 1012,9 11 0 0,0
20.09.2018 10:00:00 17,6 15,0 17,0 16,0 16 9 - - ZW 1013,0 10 0 0,0
20.09.2018 09:00:00 17,6 14,9 - - 16 9 - - ZW 1012,9 10 0 0,0
20.09.2018 08:00:00 17,2 14,6 - - 21 11 - - ZZW 1013,1 11 0 0,0
20.09.2018 07:00:00 17,2 14,8 - - 16 9 - - ZW 1013,1 11 0 0,0
20.09.2018 06:00:00 17,1 14,6 - - 16 9 - - ZW 1013,1 12 0 0,0
20.09.2018 05:00:00 17,1 14,5 - - 18 10 - - ZW 1013,3 11 0 0,0
20.09.2018 04:00:00 17,0 14,6 - - 16 9 - - ZW 1013,7 11 0 0,0
20.09.2018 03:00:00 17,0 14,9 - - 15 8 - - ZW 1014,2 11 0 0,0
20.09.2018 02:00:00 16,7 15,0 - - 13 7 - - ZW 1014,3 10 0 0,0
20.09.2018 01:00:00 16,8 15,0 - - 15 8 - - ZW 1014,5 12 - 0,0
20.09.2018 00:00:00 16,3 14,9 - - 11 6 - - ZW 1014,7 9 0 0,0
19.09.2018 23:00:00 17,0 15,0 - - 9 5 - - ZW 1015,0 10 0 0,0
19.09.2018 22:00:00 16,8 14,8 - - 13 7 - - ZW 1015,1 11 0 0,0
19.09.2018 21:00:00 17,3 14,9 - - 13 7 - - ZW 1015,2 11 0 0,0
19.09.2018 20:00:00 17,6 14,8 - - 15 8 - - ZW 1014,7 11 0 0,0
19.09.2018 19:00:00 18,1 14,7 - - 22 12 - - ZW 1014,2 13 0 0,0
19.09.2018 18:00:00 18,9 14,0 - - 21 11 52 28 ZW 1013,9 14 30 0,0
19.09.2018 17:00:00 19,4 14,1 - - 22 12 54 29 ZW 1013,4 14 18 0,0
19.09.2018 16:00:00 19,7 14,8 - - 26 14 52 28 ZW 1013,4 15 36 0,0
19.09.2018 15:00:00 19,4 15,7 - - 29 16 55 30 ZW 1013,3 13 18 0,0
19.09.2018 14:00:00 18,5 16,4 - - 26 14 54 29 ZW 1013,5 12 0 0,4
19.09.2018 13:00:00 17,7 16,6 - - 21 11 - - ZW 1013,4 11 0 1,0
19.09.2018 12:00:00 18,9 15,9 - - 24 13 46 25 ZW 1013,1 17 6 0,0
19.09.2018 11:00:00 18,9 16,0 - - 24 13 - - ZW 1013,0 14 0 0,0
19.09.2018 10:00:00 17,8 16,2 17,2 16,0 21 11 - - ZW 1013,2 10 6 0,2
19.09.2018 09:00:00 17,7 15,7 - - 18 10 - - ZW 1012,9 11 0 0,0
19.09.2018 08:00:00 17,2 15,7 - - 16 9 - - ZW 1012,9 10 0 0,2
19.09.2018 07:00:00 16,7 15,7 - - 16 9 - - ZW 1012,7 8 0 0,2
19.09.2018 06:00:00 17,1 15,2 - - 15 8 - - ZW 1012,5 11 0 0,0
19.09.2018 05:00:00 17,5 14,7 - - 16 9 - - ZW 1012,4 13 0 0,0
19.09.2018 04:00:00 17,4 14,4 - - 15 8 - - ZZW 1012,5 18 0 0,0
19.09.2018 03:00:00 17,0 14,3 - - 13 7 - - ZW 1012,7 14 0 0,0
19.09.2018 02:00:00 17,2 14,1 - - 13 7 - - ZW 1013,1 16 0 0,0
19.09.2018 01:00:00 17,1 14,1 - - 5 3 - - ZZW 1013,1 18 - 0,0
19.09.2018 00:00:00 17,4 13,9 - - 9 5 - - ZZW 1013,1 21 0 0,0
18.09.2018 23:00:00 17,3 14,2 - - 11 6 - - WZW 1013,1 20 0 0,0
18.09.2018 22:00:00 17,1 14,4 - - 11 6 - - ZW 1013,3 18 0 0,0
18.09.2018 21:00:00 16,7 14,2 - - 15 8 - - ZW 1013,2 16 0 0,0
18.09.2018 20:00:00 17,0 14,4 - - 13 7 - - ZW 1013,1 13 0 0,0
18.09.2018 19:00:00 18,0 14,7 - - 13 7 - - ZW 1012,8 15 0 0,0
18.09.2018 18:00:00 18,2 14,7 - - 16 9 - - ZW 1012,6 17 0 0,0
18.09.2018 17:00:00 18,8 14,3 - - 21 11 - - WZW 1012,4 19 0 0,0
18.09.2018 16:00:00 18,9 14,0 - - 16 9 50 27 ZW 1012,1 16 0 0,0
18.09.2018 15:00:00 19,8 13,3 - - 26 14 46 25 WZW 1011,6 21 30 0,0
18.09.2018 14:00:00 20,6 14,6 - - 18 10 - - ZW 1010,7 17 18 0,0
18.09.2018 13:00:00 19,6 12,9 - - 22 12 - - WZW 1010,4 18 6 0,0
18.09.2018 12:00:00 19,3 13,6 - - 24 13 50 27 WZW 1009,9 14 18 0,0
18.09.2018 11:00:00 19,6 13,4 - - 24 13 - - ZW 1009,4 21 18 0,0
18.09.2018 10:00:00 16,7 14,2 17,0 16,0 22 12 - - ZW 1008,7 6 0 0,0
18.09.2018 09:00:00 16,7 14,8 - - 18 10 - - ZW 1007,8 7 0 0,0
18.09.2018 08:00:00 16,6 15,0 - - 24 13 - - ZW 1007,0 14 0 0,0
18.09.2018 07:00:00 17,5 14,1 - - 21 11 55 30 ZW 1006,5 13 0 0,0
18.09.2018 06:00:00 17,8 15,7 - - 24 13 50 27 ZW 1006,4 6 0 0,0
18.09.2018 05:00:00 18,2 15,6 - - 16 9 - - ZZW 1006,2 14 0 0,0
18.09.2018 04:00:00 17,9 15,3 - - 18 10 - - ZZW 1006,4 22 0 0,0
18.09.2018 03:00:00 17,7 15,1 - - 18 10 - - ZW 1006,8 22 0 0,0
18.09.2018 02:00:00 17,8 13,1 - - 11 6 - - ZW 1007,0 40 0 0,0
18.09.2018 01:00:00 18,4 13,1 - - 9 5 - - ZZW 1007,2 45 - 0,0
18.09.2018 00:00:00 16,1 10,9 - - 5 3 - - ZZO 1007,5 50 0 0,0
17.09.2018 23:00:00 16,1 10,4 - - 5 3 - - ZZO 1008,1 45 0 0,0
17.09.2018 22:00:00 16,9 10,4 - - 9 5 - - ZO 1008,9 50 0 0,0
17.09.2018 21:00:00 15,5 9,6 - - 5 3 - - ZZO 1009,7 45 0 0,0
17.09.2018 20:00:00 16,6 9,3 - - 4 2 - - ZZO 1010,4 50 0 0,0
17.09.2018 19:00:00 19,0 9,2 - - 4 2 - - Z 1010,9 50 30 0,0
17.09.2018 18:00:00 21,2 9,8 - - 11 6 - - Z 1011,6 30 60 0,0
17.09.2018 17:00:00 22,4 10,3 - - 13 7 - - Z 1012,1 45 60 0,0
17.09.2018 16:00:00 22,3 10,2 - - 16 9 - - ZZW 1012,9 30 60 0,0
17.09.2018 15:00:00 23,4 11,5 - - 15 8 - - ZZW 1013,9 40 60 0,0
17.09.2018 14:00:00 23,2 11,4 - - 16 9 - - Z 1014,3 26 60 0,0
17.09.2018 13:00:00 22,7 13,3 - - 16 9 - - Z 1015,1 35 60 0,0
17.09.2018 12:00:00 22,1 12,9 - - 16 9 - - Z 1015,9 50 60 0,0
17.09.2018 11:00:00 21,4 15,4 - - 13 7 - - ZZW 1016,4 50 60 0,0
17.09.2018 10:00:00 19,2 15,5 16,7 16,0 11 6 - - ZZW 1016,7 40 24 0,0
17.09.2018 09:00:00 17,6 15,4 - - 11 6 - - ZZW 1017,1 27 42 0,0
17.09.2018 08:00:00 17,1 15,8 - - 9 5 - - ZZW 1017,3 23 0 0,0
17.09.2018 07:00:00 16,5 15,2 - - 11 6 - - ZZW 1017,2 12 0 0,0
17.09.2018 06:00:00 16,9 15,5 - - 9 5 - - ZZW 1017,4 18 0 0,0
17.09.2018 05:00:00 16,8 15,5 - - 15 8 - - ZW 1017,0 18 0 0,0
17.09.2018 04:00:00 16,8 15,5 - - 11 6 - - ZW 1017,4 17 0 0,0
17.09.2018 03:00:00 16,7 15,2 - - 8 4 - - ZZW 1017,7 35 0 0,0
17.09.2018 02:00:00 16,8 15,4 - - 8 4 - - ZZW 1018,0 27 0 0,0
17.09.2018 01:00:00 16,7 15,3 - - 9 5 - - ZW 1018,6 21 - -
17.09.2018 00:00:00 16,1 14,9 - - 9 5 - - ZW 1018,6 17 0 0,0
16.09.2018 23:00:00 15,8 14,3 - - 8 4 - - ZZW 1018,9 17 0 0,0
16.09.2018 22:00:00 15,6 14,1 - - 8 4 - - ZZW 1018,9 18 0 0,0

tt = temperatuur
td = dauwpunt
tt -20cm = temperatuur -20cm
tt -100cm = temperatuur -100cm
ff = windsnelheid
fx = windstoten
dd = windrichting
ppp = luchtdruk
vv = zicht
sd = Zonneschijnduur
rr = neerslag

Weerstations in de omgeving